User: anonymous   Login
Location: Unspecified
(0.0000°N, 0.0000°E)
Time: 21:13:36
(UTC+00:00)
Language:

NOSS 7 (E) - Orbit

View from above orbital plane
View from above orbital plane
View from above satellite
View from above satellite

Ground track
Ground track

The orbit data is extracted from the following two-line orbital elements,

1 16624U 86014E   20056.04251881 +.00000202 +00000-0 +36139-4 0  9990
2 16624 063.3013 138.2498 0924322 073.7252 296.3338 13.46148631036583
Epoch (UTC): 25 February 2020 01:01:13
Eccentricity: 0.0924322
inclination: 63.3013°
perigee height: 396 km
apogee height: 1776 km
right ascension of ascending node: 138.2498°
argument of perigee: 73.7252°
revolutions per day: 13.46148631
mean anomaly at epoch: 296.3338°
orbit number at epoch: 3658

The dashed part of the orbit path shows where the satellite is in the earth's shadow,  

DLR